• In Hungary
  • List of Countries
  • For 7 days
  • Water Temperature
  • Satellite Maps
  • Weather Map
  • News
  • Weather Widgets
  • user-avatar
    Login

    Hourly Weather l'Hospitalet de Llobregat

    Today, 15 November, Thursday

    Time Temperature Precipitation Wind Pressure Humidity
    00:00 +15°C° 0.3 mm 4 mps 758 mmHg 88%
    01:00 +15°C° 0.4 mm 4 mps 758 mmHg 88%
    02:00 +15°C° 0.4 mm 4 mps 757 mmHg 87%
    03:00 +14°C° 0.4 mm 4 mps 757 mmHg 86%
    04:00 +14°C° 0.1 mm 4 mps 757 mmHg 86%
    05:00 +14°C° 0.1 mm 4 mps 757 mmHg 86%
    06:00 +14°C° 0.1 mm 4 mps 757 mmHg 86%
    07:00 +15°C° 0.1 mm 4 mps 757 mmHg 83%
    08:00 +17°C° 0.1 mm 4 mps 757 mmHg 80%
    09:00 +18°C° 0.1 mm 4 mps 757 mmHg 77%
    10:00 +19°C° 0.2 mm 4 mps 757 mmHg 73%
    11:00 +20°C° 0.2 mm 5 mps 757 mmHg 69%
    12:00 +21°C° 0.2 mm 5 mps 757 mmHg 65%
    13:00 +20°C° 0.3 mm 5 mps 757 mmHg 67%
    14:00 +20°C° 0.3 mm 5 mps 756 mmHg 68%
    15:00 +20°C° 0.3 mm 5 mps 756 mmHg 70%
    16:00 +19°C° 0.1 mm 4 mps 756 mmHg 75%
    17:00 +18°C° 0.1 mm 4 mps 757 mmHg 80%
    18:00 +17°C° 0.1 mm 4 mps 757 mmHg 85%
    19:00 +17°C° 0.2 mm 4 mps 757 mmHg 86%
    20:00 +15°C° 0.2 mm 4 mps 757 mmHg 87%
    21:00 +16°C° 0.2 mm 3 mps 757 mmHg 88%
    22:00 +16°C° 0.3 mm 3 mps 757 mmHg 88%
    23:00 +15°C° 0.3 mm 4 mps 757 mmHg 88%

    Tomorrow, 16 November, Friday

    Time Temperature Precipitation Wind Pressure Humidity
    00:00 +14°C° 0.3 mm 4 mps 757 mmHg 88%
    01:00 +14°C° 0.1 mm 4 mps 757 mmHg 87%
    02:00 +14°C° 0.1 mm 4 mps 757 mmHg 87%
    03:00 +14°C° 0.1 mm 4 mps 757 mmHg 86%
    04:00 +14°C° 0 mm 4 mps 757 mmHg 86%
    05:00 +13°C° 0 mm 4 mps 757 mmHg 85%
    06:00 +13°C° 0 mm 4 mps 757 mmHg 84%
    07:00 +14°C° 0 mm 4 mps 757 mmHg 82%
    08:00 +15°C° 0 mm 4 mps 758 mmHg 79%
    09:00 +17°C° 0 mm 4 mps 758 mmHg 76%
    10:00 +18°C° 0 mm 4 mps 758 mmHg 73%
    11:00 +19°C° 0 mm 4 mps 758 mmHg 71%
    12:00 +19°C° 0 mm 5 mps 757 mmHg 68%
    13:00 +19°C° 0 mm 5 mps 757 mmHg 68%
    14:00 +19°C° 0 mm 5 mps 757 mmHg 68%
    15:00 +19°C° 0 mm 5 mps 757 mmHg 68%
    16:00 +17°C° 0 mm 5 mps 757 mmHg 73%
    17:00 +16°C° 0 mm 5 mps 757 mmHg 78%
    18:00 +15°C° 0 mm 5 mps 757 mmHg 83%
    19:00 +15°C° 0 mm 5 mps 757 mmHg 84%
    20:00 +14°C° 0 mm 5 mps 757 mmHg 85%
    21:00 +14°C° 0 mm 5 mps 757 mmHg 87%
    22:00 +14°C° 0 mm 5 mps 757 mmHg 87%
    23:00 +13°C° 0 mm 5 mps 757 mmHg 87%

    Day after tomorrow, 17 November, Saturday

    Time Temperature Precipitation Wind Pressure Humidity
    00:00 +13°C° 0 mm 5 mps 757 mmHg 88%
    01:00 +13°C° 0 mm 5 mps 757 mmHg 86%
    02:00 +13°C° 0 mm 5 mps 756 mmHg 85%
    03:00 +12°C° 0 mm 5 mps 756 mmHg 84%
    04:00 +12°C° 0 mm 5 mps 756 mmHg 82%
    05:00 +12°C° 0 mm 5 mps 756 mmHg 81%
    06:00 +12°C° 0 mm 5 mps 756 mmHg 79%
    07:00 +13°C° 0.1 mm 6 mps 756 mmHg 77%
    08:00 +13°C° 0.1 mm 6 mps 756 mmHg 75%
    09:00 +14°C° 0.1 mm 7 mps 756 mmHg 73%
    10:00 +14°C° 0 mm 7 mps 755 mmHg 72%
    11:00 +14°C° 0 mm 7 mps 755 mmHg 70%
    12:00 +15°C° 0 mm 7 mps 755 mmHg 68%
    13:00 +14°C° 0 mm 7 mps 755 mmHg 69%
    14:00 +14°C° 0 mm 7 mps 754 mmHg 70%
    15:00 +13°C° 0 mm 8 mps 754 mmHg 70%
    16:00 +12°C° 0.1 mm 8 mps 754 mmHg 72%
    17:00 +12°C° 0.1 mm 8 mps 754 mmHg 74%
    18:00 +11°C° 0.1 mm 8 mps 754 mmHg 75%
    19:00 +11°C° 0.2 mm 8 mps 754 mmHg 76%
    20:00 +11°C° 0.2 mm 8 mps 754 mmHg 77%
    21:00 +11°C° 0.2 mm 8 mps 754 mmHg 78%
    22:00 +11°C° 0.2 mm 8 mps 753 mmHg 78%
    23:00 +11°C° 0.2 mm 7 mps 753 mmHg 79%

    18 November, Sunday

    Time Temperature Precipitation Wind Pressure Humidity
    00:00 +11°C° 0.2 mm 7 mps 752 mmHg 79%
    01:00 +11°C° 0.1 mm 7 mps 752 mmHg 80%
    02:00 +10°C° 0.1 mm 7 mps 752 mmHg 81%
    03:00 +10°C° 0.1 mm 7 mps 751 mmHg 83%
    04:00 +10°C° 0.3 mm 7 mps 751 mmHg 84%
    05:00 +10°C° 0.3 mm 8 mps 751 mmHg 85%
    06:00 +11°C° 0.3 mm 8 mps 751 mmHg 86%
    07:00 +11°C° 0.5 mm 8 mps 751 mmHg 84%
    08:00 +11°C° 0.5 mm 8 mps 751 mmHg 83%
    09:00 +12°C° 0.5 mm 9 mps 751 mmHg 81%
    10:00 +12°C° 0.9 mm 9 mps 751 mmHg 80%
    11:00 +12°C° 0.9 mm 8 mps 751 mmHg 80%
    12:00 +12°C° 0.9 mm 8 mps 750 mmHg 79%
    13:00 +12°C° 1.2 mm 8 mps 750 mmHg 81%
    14:00 +12°C° 1.2 mm 9 mps 750 mmHg 83%
    15:00 +12°C° 1.2 mm 9 mps 749 mmHg 85%
    16:00 +12°C° 0.9 mm 9 mps 749 mmHg 85%
    17:00 +12°C° 0.9 mm 9 mps 749 mmHg 85%
    18:00 +12°C° 0.9 mm 10 mps 749 mmHg 84%
    19:00 +12°C° 0.6 mm 10 mps 749 mmHg 85%
    20:00 +12°C° 0.6 mm 10 mps 749 mmHg 85%
    21:00 +12°C° 0.6 mm 10 mps 749 mmHg 85%
    22:00 +12°C° 1 mm 9 mps 748 mmHg 85%
    23:00 +12°C° 1 mm 9 mps 748 mmHg 86%

    19 November, Monday

    Time Temperature Precipitation Wind Pressure Humidity
    00:00 +12°C° 1 mm 9 mps 747 mmHg 86%
    01:00 +12°C° 1.3 mm 8 mps 747 mmHg 87%
    02:00 +12°C° 1.3 mm 8 mps 746 mmHg 87%
    03:00 +12°C° 1.3 mm 8 mps 746 mmHg 87%
    04:00 +12°C° 1.1 mm 7 mps 745 mmHg 87%
    05:00 +12°C° 1.1 mm 7 mps 745 mmHg 87%
    06:00 +13°C° 1.1 mm 6 mps 745 mmHg 87%
    07:00 +13°C° 0.6 mm 6 mps 745 mmHg 85%
    08:00 +14°C° 0.6 mm 5 mps 745 mmHg 83%
    09:00 +14°C° 0.6 mm 5 mps 745 mmHg 81%
    10:00 +15°C° 0.4 mm 5 mps 744 mmHg 79%
    11:00 +15°C° 0.4 mm 5 mps 744 mmHg 76%
    12:00 +17°C° 0.4 mm 4 mps 744 mmHg 74%
    13:00 +17°C° 0.2 mm 4 mps 744 mmHg 74%
    14:00 +17°C° 0.2 mm 4 mps 743 mmHg 74%
    15:00 +15°C° 0.2 mm 4 mps 743 mmHg 75%
    16:00 +15°C° 0.1 mm 5 mps 743 mmHg 77%
    17:00 +14°C° 0.1 mm 5 mps 743 mmHg 79%
    18:00 +13°C° 0.1 mm 5 mps 743 mmHg 81%
    19:00 +13°C° 0.1 mm 5 mps 743 mmHg 81%
    20:00 +13°C° 0.1 mm 5 mps 743 mmHg 81%
    21:00 +12°C° 0.1 mm 5 mps 743 mmHg 81%
    22:00 +12°C° 0.1 mm 5 mps 743 mmHg 80%
    23:00 +12°C° 0.1 mm 5 mps 743 mmHg 80%

    20 November, Tuesday

    Time Temperature Precipitation Wind Pressure Humidity
    00:00 +12°C° 0.1 mm 4 mps 743 mmHg 80%
    01:00 +12°C° 0.1 mm 4 mps 742 mmHg 79%
    02:00 +12°C° 0.1 mm 4 mps 742 mmHg 79%
    03:00 +11°C° 0.1 mm 4 mps 742 mmHg 79%
    04:00 +11°C° 0 mm 4 mps 742 mmHg 79%
    05:00 +11°C° 0 mm 3 mps 742 mmHg 79%
    06:00 +11°C° 0 mm 3 mps 742 mmHg 78%
    07:00 +12°C° 0 mm 3 mps 742 mmHg 76%
    08:00 +13°C° 0 mm 2 mps 743 mmHg 73%
    09:00 +14°C° 0 mm 2 mps 743 mmHg 70%
    10:00 +15°C° 0 mm 2 mps 743 mmHg 67%
    11:00 +16°C° 0 mm 3 mps 743 mmHg 63%
    12:00 +17°C° 0 mm 3 mps 743 mmHg 60%
    13:00 +17°C° 0 mm 4 mps 743 mmHg 60%
    14:00 +17°C° 0 mm 4 mps 743 mmHg 61%
    15:00 +16°C° 0 mm 5 mps 743 mmHg 61%
    16:00 +15°C° 0 mm 5 mps 743 mmHg 64%
    17:00 +14°C° 0 mm 5 mps 743 mmHg 68%
    18:00 +13°C° 0 mm 5 mps 744 mmHg 71%
    19:00 +13°C° 0 mm 4 mps 744 mmHg 72%
    20:00 +13°C° 0 mm 4 mps 744 mmHg 73%
    21:00 +13°C° 0 mm 3 mps 744 mmHg 74%
    22:00 +12°C° 0.1 mm 4 mps 744 mmHg 75%
    23:00 +12°C° 0.1 mm 4 mps 743 mmHg 75%
    Show more